Time,TemperatureF,DewpointF,PressureIn,WindDirection,WindDirectionDegrees,WindSpeedMPH,WindSpeedGustMPH,Humidity,HourlyPrecipIn,Conditions,Clouds,dailyrainin,SoftwareType,DateUTC
2013-02-25 00:02:00,14.0,11.0,30.14,South,169,4.0,-999.0,86,-99.99,,,-99.99,,2013-02-25 06:02:00,
2013-02-25 00:11:00,14.0,11.0,30.14,South,169,4.0,-999.0,86,-99.99,,,-99.99,,2013-02-25 06:11:00,
2013-02-25 00:21:00,13.0,10.0,30.14,South,169,1.0,-999.0,86,-99.99,,,-99.99,,2013-02-25 06:21:00,
2013-02-25 00:31:00,13.0,10.0,30.15,South,169,3.0,-999.0,86,-99.99,,,-99.99,,2013-02-25 06:31:00,
2013-02-25 00:41:00,13.0,10.0,30.15,South,169,3.0,-999.0,86,-99.99,,,-99.99,,2013-02-25 06:41:00,
2013-02-25 00:51:00,13.0,10.0,30.16,South,169,1.0,-999.0,86,-99.99,,,-99.99,,2013-02-25 06:51:00,
2013-02-25 01:01:00,13.0,10.0,30.15,SSE,168,1.0,-999.0,87,-99.99,,,-99.99,,2013-02-25 07:01:00,
2013-02-25 01:11:00,12.0,9.0,30.15,South,169,0.0,-999.0,87,-99.99,,,-99.99,,2013-02-25 07:11:00,
2013-02-25 01:21:00,12.0,9.0,30.15,South,169,0.0,-999.0,87,-99.99,,,-99.99,,2013-02-25 07:21:00,
2013-02-25 01:31:00,11.0,8.0,30.14,South,169,0.0,-999.0,87,-99.99,,,-99.99,,2013-02-25 07:31:00,
2013-02-25 01:41:00,11.0,8.0,30.14,South,169,0.0,-999.0,87,-99.99,,,-99.99,,2013-02-25 07:41:00,
2013-02-25 01:52:00,11.0,8.0,30.14,SSE,168,0.0,-999.0,88,-99.99,,,-99.99,,2013-02-25 07:52:00,
2013-02-25 02:01:00,11.0,8.0,30.14,South,169,0.0,-999.0,88,-99.99,,,-99.99,,2013-02-25 08:01:00,
2013-02-25 02:11:00,11.0,8.0,30.14,South,169,0.0,-999.0,88,-99.99,,,-99.99,,2013-02-25 08:11:00,
2013-02-25 02:21:00,11.0,8.0,30.14,SSE,168,0.0,-999.0,88,-99.99,,,-99.99,,2013-02-25 08:21:00,
2013-02-25 02:31:00,11.0,8.0,30.14,South,169,0.0,-999.0,89,-99.99,,,-99.99,,2013-02-25 08:31:00,
2013-02-25 02:41:00,11.0,8.0,30.14,South,169,0.0,-999.0,89,-99.99,,,-99.99,,2013-02-25 08:41:00,
2013-02-25 02:52:00,11.0,8.0,30.14,South,169,0.0,-999.0,89,-99.99,,,-99.99,,2013-02-25 08:52:00,
2013-02-25 03:01:00,12.0,9.0,30.14,SSE,168,0.0,-999.0,89,-99.99,,,-99.99,,2013-02-25 09:01:00,
2013-02-25 03:12:00,12.0,9.0,30.14,SSE,168,0.0,-999.0,89,-99.99,,,-99.99,,2013-02-25 09:12:00,
2013-02-25 03:21:00,11.0,8.0,30.12,South,169,0.0,-999.0,89,-99.99,,,-99.99,,2013-02-25 09:21:00,
2013-02-25 03:31:00,11.0,8.0,30.12,SSE,168,0.0,-999.0,89,-99.99,,,-99.99,,2013-02-25 09:31:00,
2013-02-25 03:41:00,11.0,8.0,30.12,SSE,168,0.0,-999.0,89,-99.99,,,-99.99,,2013-02-25 09:41:00,
2013-02-25 03:52:00,11.0,8.0,30.12,South,169,0.0,-999.0,89,-99.99,,,-99.99,,2013-02-25 09:52:00,
2013-02-25 04:01:00,11.0,8.0,30.11,SSE,168,0.0,-999.0,89,-99.99,,,-99.99,,2013-02-25 10:01:00,
2013-02-25 04:11:00,11.0,8.0,30.12,South,169,0.0,-999.0,89,-99.99,,,-99.99,,2013-02-25 10:11:00,
2013-02-25 04:21:00,11.0,8.0,30.12,South,169,0.0,-999.0,89,-99.99,,,-99.99,,2013-02-25 10:21:00,
2013-02-25 04:31:00,11.0,9.0,30.12,SSE,168,0.0,-999.0,90,-99.99,,,-99.99,,2013-02-25 10:31:00,
2013-02-25 04:42:00,11.0,9.0,30.12,SSE,168,0.0,-999.0,90,-99.99,,,-99.99,,2013-02-25 10:42:00,
2013-02-25 04:52:00,11.0,9.0,30.12,SSE,168,0.0,-999.0,90,-99.99,,,-99.99,,2013-02-25 10:52:00,
2013-02-25 05:01:00,12.0,10.0,30.12,South,169,0.0,-999.0,90,-99.99,,,-99.99,,2013-02-25 11:01:00,
2013-02-25 05:11:00,12.0,10.0,30.12,South,169,0.0,-999.0,90,-99.99,,,-99.99,,2013-02-25 11:11:00,
2013-02-25 05:21:00,12.0,10.0,30.13,South,169,0.0,-999.0,90,-99.99,,,-99.99,,2013-02-25 11:21:00,
2013-02-25 05:32:00,13.0,11.0,30.13,SSE,168,1.0,-999.0,90,-99.99,,,-99.99,,2013-02-25 11:32:00,
2013-02-25 05:42:00,13.0,11.0,30.13,SSE,168,1.0,-999.0,90,-99.99,,,-99.99,,2013-02-25 11:42:00,
2013-02-25 05:52:00,13.0,11.0,30.13,South,169,0.0,-999.0,90,-99.99,,,-99.99,,2013-02-25 11:52:00,
2013-02-25 06:02:00,13.0,11.0,30.13,SSE,168,0.0,-999.0,90,-99.99,,,-99.99,,2013-02-25 12:02:00,
2013-02-25 06:11:00,13.0,11.0,30.13,SSE,168,0.0,-999.0,90,-99.99,,,-99.99,,2013-02-25 12:11:00,
2013-02-25 06:21:00,13.0,11.0,30.14,South,169,0.0,-999.0,91,-99.99,,,-99.99,,2013-02-25 12:21:00,
2013-02-25 06:32:00,13.0,11.0,30.14,South,169,0.0,-999.0,91,-99.99,,,-99.99,,2013-02-25 12:32:00,
2013-02-25 06:42:00,13.0,11.0,30.14,South,169,0.0,-999.0,91,-99.99,,,-99.99,,2013-02-25 12:42:00,
2013-02-25 06:55:00,13.0,11.0,30.14,South,169,0.0,-999.0,91,-99.99,,,-99.99,,2013-02-25 12:55:00,
2013-02-25 07:02:00,13.0,11.0,30.14,SSE,168,0.0,-999.0,91,-99.99,,,-99.99,,2013-02-25 13:02:00,
2013-02-25 07:12:00,13.0,11.0,30.14,SSE,168,0.0,-999.0,91,-99.99,,,-99.99,,2013-02-25 13:12:00,
2013-02-25 07:22:00,13.0,11.0,30.14,South,169,0.0,-999.0,91,-99.99,,,-99.99,,2013-02-25 13:22:00,
2013-02-25 07:32:00,13.0,11.0,30.14,SSE,168,1.0,-999.0,91,-99.99,,,-99.99,,2013-02-25 13:32:00,
2013-02-25 07:42:00,13.0,11.0,30.14,SSE,168,1.0,-999.0,91,-99.99,,,-99.99,,2013-02-25 13:42:00,
2013-02-25 07:52:00,13.0,11.0,30.15,South,169,0.0,-999.0,91,-99.99,,,-99.99,,2013-02-25 13:52:00,
2013-02-25 08:03:00,13.0,11.0,30.15,South,169,0.0,-999.0,91,-99.99,,,-99.99,,2013-02-25 14:03:00,
2013-02-25 08:17:00,13.0,11.0,30.15,South,169,0.0,-999.0,91,-99.99,,,-99.99,,2013-02-25 14:17:00,
2013-02-25 08:32:00,14.0,12.0,30.15,South,169,0.0,-999.0,91,-99.99,,,-99.99,,2013-02-25 14:32:00,
2013-02-25 08:42:00,14.0,12.0,30.15,South,169,0.0,-999.0,91,-99.99,,,-99.99,,2013-02-25 14:42:00,
2013-02-25 08:52:00,14.0,12.0,30.15,SSE,168,0.0,-999.0,91,-99.99,,,-99.99,,2013-02-25 14:52:00,
2013-02-25 09:02:00,14.0,12.0,30.15,South,169,0.0,-999.0,91,-99.99,,,-99.99,,2013-02-25 15:02:00,
2013-02-25 09:11:00,14.0,12.0,30.15,South,169,0.0,-999.0,91,-99.99,,,-99.99,,2013-02-25 15:11:00,
2013-02-25 09:21:00,15.0,13.0,30.15,SSE,168,0.0,-999.0,91,-99.99,,,-99.99,,2013-02-25 15:21:00,
2013-02-25 09:32:00,16.0,14.0,30.15,South,169,0.0,-999.0,91,-99.99,,,-99.99,,2013-02-25 15:32:00,
2013-02-25 09:41:00,16.0,14.0,30.15,South,169,0.0,-999.0,91,-99.99,,,-99.99,,2013-02-25 15:41:00,
2013-02-25 09:51:00,17.0,15.0,30.15,SSE,168,0.0,-999.0,91,-99.99,,,-99.99,,2013-02-25 15:51:00,
2013-02-25 10:02:00,17.0,15.0,30.15,South,169,0.0,-999.0,91,-99.99,,,-99.99,,2013-02-25 16:02:00,
2013-02-25 10:12:00,17.0,15.0,30.15,South,169,0.0,-999.0,91,-99.99,,,-99.99,,2013-02-25 16:12:00,
2013-02-25 10:21:00,17.0,15.0,30.14,South,169,0.0,-999.0,91,-99.99,,,-99.99,,2013-02-25 16:21:00,
2013-02-25 10:32:00,19.0,17.0,30.15,SSE,168,0.0,-999.0,92,-99.99,,,-99.99,,2013-02-25 16:32:00,
2013-02-25 10:42:00,19.0,17.0,30.15,SSE,168,0.0,-999.0,92,-99.99,,,-99.99,,2013-02-25 16:42:00,
2013-02-25 10:51:00,20.0,18.0,30.15,South,169,0.0,-999.0,92,-99.99,,,-99.99,,2013-02-25 16:51:00,
2013-02-25 11:01:00,20.0,18.0,30.15,South,169,0.0,-999.0,92,-99.99,,,-99.99,,2013-02-25 17:01:00,
2013-02-25 11:11:00,20.0,18.0,30.15,South,169,0.0,-999.0,92,-99.99,,,-99.99,,2013-02-25 17:11:00,
2013-02-25 11:21:00,20.0,18.0,30.15,SSE,168,1.0,-999.0,92,-99.99,,,-99.99,,2013-02-25 17:21:00,
2013-02-25 11:32:00,21.0,19.0,30.14,South,169,2.0,-999.0,92,-99.99,,,-99.99,,2013-02-25 17:32:00,
2013-02-25 11:42:00,21.0,19.0,30.14,South,169,2.0,-999.0,92,-99.99,,,-99.99,,2013-02-25 17:42:00,
2013-02-25 11:52:00,21.0,19.0,30.14,SSE,168,0.0,-999.0,91,-99.99,,,-99.99,,2013-02-25 17:52:00,
2013-02-25 12:01:00,23.0,21.0,30.14,SSE,168,0.0,-999.0,92,-99.99,,,-99.99,,2013-02-25 18:01:00,
2013-02-25 12:12:00,23.0,21.0,30.14,SSE,168,0.0,-999.0,92,-99.99,,,-99.99,,2013-02-25 18:12:00,
2013-02-25 12:21:00,24.0,22.0,30.15,South,169,1.0,-999.0,90,-99.99,,,-99.99,,2013-02-25 18:21:00,
2013-02-25 12:32:00,24.0,21.0,30.15,SSE,168,0.0,-999.0,88,-99.99,,,-99.99,,2013-02-25 18:32:00,
2013-02-25 12:41:00,24.0,21.0,30.15,SSE,168,0.0,-999.0,88,-99.99,,,-99.99,,2013-02-25 18:41:00,
2013-02-25 12:51:00,25.0,22.0,30.14,South,169,1.0,-999.0,87,-99.99,,,-99.99,,2013-02-25 18:51:00,
2013-02-25 13:01:00,25.0,21.0,30.14,SSE,168,0.0,-999.0,85,-99.99,,,-99.99,,2013-02-25 19:01:00,
2013-02-25 13:11:00,25.0,21.0,30.14,SSE,168,0.0,-999.0,85,-99.99,,,-99.99,,2013-02-25 19:11:00,
2013-02-25 13:21:00,25.0,21.0,30.14,SSE,168,0.0,-999.0,86,-99.99,,,-99.99,,2013-02-25 19:21:00,
2013-02-25 13:31:00,25.0,21.0,30.14,South,169,0.0,-999.0,86,-99.99,,,-99.99,,2013-02-25 19:31:00,
2013-02-25 13:41:00,25.0,21.0,30.14,South,169,0.0,-999.0,86,-99.99,,,-99.99,,2013-02-25 19:41:00,
2013-02-25 13:52:00,25.0,21.0,30.13,SSE,168,0.0,-999.0,86,-99.99,,,-99.99,,2013-02-25 19:52:00,
2013-02-25 14:01:00,25.0,21.0,30.12,SSE,168,0.0,-999.0,86,-99.99,,,-99.99,,2013-02-25 20:01:00,
2013-02-25 14:11:00,25.0,21.0,30.12,SSE,168,0.0,-999.0,86,-99.99,,,-99.99,,2013-02-25 20:11:00,
2013-02-25 14:21:00,26.0,22.0,30.11,SSE,168,0.0,-999.0,86,-99.99,,,-99.99,,2013-02-25 20:21:00,
2013-02-25 14:32:00,25.0,21.0,30.12,South,169,2.0,-999.0,85,-99.99,,,-99.99,,2013-02-25 20:32:00,
2013-02-25 14:41:00,25.0,21.0,30.12,South,169,2.0,-999.0,85,-99.99,,,-99.99,,2013-02-25 20:41:00,
2013-02-25 14:52:00,24.0,20.0,30.11,South,169,5.0,-999.0,86,-99.99,,,-99.99,,2013-02-25 20:52:00,
2013-02-25 15:01:00,24.0,21.0,30.11,South,169,3.0,-999.0,87,-99.99,,,-99.99,,2013-02-25 21:01:00,
2013-02-25 15:11:00,24.0,21.0,30.11,South,169,3.0,-999.0,87,-99.99,,,-99.99,,2013-02-25 21:11:00,
2013-02-25 15:21:00,24.0,21.0,30.11,South,169,2.0,-999.0,87,-99.99,,,-99.99,,2013-02-25 21:21:00,
2013-02-25 15:32:00,24.0,20.0,30.11,SSE,168,2.0,-999.0,86,-99.99,,,-99.99,,2013-02-25 21:32:00,
2013-02-25 15:42:00,24.0,20.0,30.11,SSE,168,2.0,-999.0,86,-99.99,,,-99.99,,2013-02-25 21:42:00,
2013-02-25 15:51:00,24.0,21.0,30.11,South,169,0.0,-999.0,87,-99.99,,,-99.99,,2013-02-25 21:51:00,
2013-02-25 16:01:00,24.0,21.0,30.11,South,169,1.0,-999.0,87,-99.99,,,-99.99,,2013-02-25 22:01:00,
2013-02-25 16:11:00,24.0,21.0,30.11,South,169,1.0,-999.0,87,-99.99,,,-99.99,,2013-02-25 22:11:00,
2013-02-25 16:21:00,24.0,21.0,30.11,SSE,168,3.0,-999.0,87,-99.99,,,-99.99,,2013-02-25 22:21:00,
2013-02-25 16:32:00,23.0,20.0,30.11,South,169,3.0,-999.0,88,-99.99,,,-99.99,,2013-02-25 22:32:00,
2013-02-25 16:42:00,23.0,20.0,30.11,South,169,3.0,-999.0,88,-99.99,,,-99.99,,2013-02-25 22:42:00,
2013-02-25 16:51:00,23.0,20.0,30.11,SSE,168,0.0,-999.0,88,-99.99,,,-99.99,,2013-02-25 22:51:00,
2013-02-25 17:01:00,22.0,19.0,30.12,South,169,1.0,-999.0,89,-99.99,,,-99.99,,2013-02-25 23:01:00,
2013-02-25 17:11:00,22.0,19.0,30.12,South,169,1.0,-999.0,89,-99.99,,,-99.99,,2013-02-25 23:11:00,
2013-02-25 17:22:00,22.0,19.0,30.12,South,169,0.0,-999.0,89,-99.99,,,-99.99,,2013-02-25 23:22:00,
2013-02-25 17:31:00,22.0,20.0,30.12,SSE,168,1.0,-999.0,90,-99.99,,,-99.99,,2013-02-25 23:31:00,
2013-02-25 17:41:00,22.0,20.0,30.12,SSE,168,1.0,-999.0,90,-99.99,,,-99.99,,2013-02-25 23:41:00,
2013-02-25 17:52:00,22.0,20.0,30.13,SSE,168,1.0,-999.0,90,-99.99,,,-99.99,,2013-02-25 23:52:00,
2013-02-25 18:01:00,22.0,20.0,30.12,SSE,168,3.0,-999.0,90,-99.99,,,-99.99,,2013-02-26 00:01:00,
2013-02-25 18:12:00,22.0,20.0,30.12,SSE,168,3.0,-999.0,90,-99.99,,,-99.99,,2013-02-26 00:12:00,
2013-02-25 18:22:00,22.0,20.0,30.12,South,169,2.0,-999.0,90,-99.99,,,-99.99,,2013-02-26 00:22:00,
2013-02-25 18:32:00,21.0,19.0,30.12,South,169,1.0,-999.0,91,-99.99,,,-99.99,,2013-02-26 00:32:00,
2013-02-25 18:42:00,21.0,19.0,30.12,South,169,1.0,-999.0,91,-99.99,,,-99.99,,2013-02-26 00:42:00,
2013-02-25 18:52:00,21.0,19.0,30.12,South,169,0.0,-999.0,91,-99.99,,,-99.99,,2013-02-26 00:52:00,
2013-02-25 19:02:00,21.0,19.0,30.12,South,169,0.0,-999.0,91,-99.99,,,-99.99,,2013-02-26 01:02:00,
2013-02-25 19:11:00,21.0,19.0,30.12,South,169,0.0,-999.0,91,-99.99,,,-99.99,,2013-02-26 01:11:00,
2013-02-25 19:21:00,21.0,19.0,30.12,South,169,0.0,-999.0,92,-99.99,,,-99.99,,2013-02-26 01:21:00,
2013-02-25 19:31:00,21.0,19.0,30.12,South,169,2.0,-999.0,92,-99.99,,,-99.99,,2013-02-26 01:31:00,
2013-02-25 19:41:00,21.0,19.0,30.12,South,169,2.0,-999.0,92,-99.99,,,-99.99,,2013-02-26 01:41:00,
2013-02-25 19:52:00,21.0,19.0,30.12,SSE,168,1.0,-999.0,92,-99.99,,,-99.99,,2013-02-26 01:52:00,
2013-02-25 20:01:00,20.0,18.0,30.12,South,169,2.0,-999.0,92,-99.99,,,-99.99,,2013-02-26 02:01:00,
2013-02-25 20:11:00,20.0,18.0,30.12,South,169,2.0,-999.0,92,-99.99,,,-99.99,,2013-02-26 02:11:00,
2013-02-25 20:21:00,21.0,19.0,30.11,SSE,168,1.0,-999.0,93,-99.99,,,-99.99,,2013-02-26 02:21:00,
2013-02-25 20:32:00,20.0,18.0,30.11,South,169,1.0,-999.0,93,-99.99,,,-99.99,,2013-02-26 02:32:00,
2013-02-25 20:41:00,20.0,18.0,30.11,South,169,1.0,-999.0,93,-99.99,,,-99.99,,2013-02-26 02:41:00,
2013-02-25 20:52:00,20.0,18.0,30.10,SSE,168,3.0,-999.0,93,-99.99,,,-99.99,,2013-02-26 02:52:00,
2013-02-25 21:01:00,20.0,18.0,30.10,SSE,168,1.0,-999.0,93,-99.99,,,-99.99,,2013-02-26 03:01:00,
2013-02-25 21:11:00,20.0,18.0,30.10,SSE,168,1.0,-999.0,93,-99.99,,,-99.99,,2013-02-26 03:11:00,
2013-02-25 21:21:00,20.0,18.0,30.09,SSE,168,2.0,-999.0,93,-99.99,,,-99.99,,2013-02-26 03:21:00,
2013-02-25 21:32:00,20.0,18.0,30.09,SSE,168,0.0,-999.0,92,-99.99,,,-99.99,,2013-02-26 03:32:00,
2013-02-25 21:41:00,20.0,18.0,30.09,SSE,168,0.0,-999.0,92,-99.99,,,-99.99,,2013-02-26 03:41:00,
2013-02-25 21:52:00,20.0,18.0,30.09,SSE,168,1.0,-999.0,93,-99.99,,,-99.99,,2013-02-26 03:52:00,
2013-02-25 22:01:00,20.0,18.0,30.09,SSE,168,3.0,-999.0,93,-99.99,,,-99.99,,2013-02-26 04:01:00,
2013-02-25 22:11:00,20.0,18.0,30.09,SSE,168,3.0,-999.0,93,-99.99,,,-99.99,,2013-02-26 04:11:00,
2013-02-25 22:21:00,20.0,18.0,30.09,SSE,168,3.0,-999.0,93,-99.99,,,-99.99,,2013-02-26 04:21:00,
2013-02-25 22:32:00,20.0,18.0,30.09,SSE,168,3.0,-999.0,93,-99.99,,,-99.99,,2013-02-26 04:32:00,
2013-02-25 22:42:00,20.0,18.0,30.09,SSE,168,3.0,-999.0,93,-99.99,,,-99.99,,2013-02-26 04:42:00,
2013-02-25 22:52:00,20.0,18.0,30.09,South,169,3.0,-999.0,92,-99.99,,,-99.99,,2013-02-26 04:52:00,
2013-02-25 23:01:00,20.0,18.0,30.08,South,169,3.0,-999.0,93,-99.99,,,-99.99,,2013-02-26 05:01:00,
2013-02-25 23:12:00,20.0,18.0,30.08,SSE,168,0.0,-999.0,92,-99.99,,,-99.99,,2013-02-26 05:12:00,
2013-02-25 23:21:00,20.0,18.0,30.08,SSE,168,0.0,-999.0,92,-99.99,,,-99.99,,2013-02-26 05:21:00,
2013-02-25 23:32:00,20.0,18.0,30.09,SSE,168,0.0,-999.0,93,-99.99,,,-99.99,,2013-02-26 05:32:00,
2013-02-25 23:43:00,20.0,18.0,30.09,SSE,168,0.0,-999.0,93,-99.99,,,-99.99,,2013-02-26 05:43:00,
2013-02-25 23:52:00,20.0,18.0,30.09,South,169,2.0,-999.0,93,-99.99,,,-99.99,,2013-02-26 05:52:00,